Theta_e
338 339 340 340 340 341 341 341 341 341 342 341 340 338 338 339 340 340 340 341 341 341 342 342 335 332 334 335 337 338 336 335 335 336 335 335 340 341 340 337 335 335 333
336 340 341 342 341 340 341 342 341 342 341 341 343 340 338 339 340 341 341 343 341 342 343 339 329 329 333 334 334 332 334 336 332 330 331 332 336 345 340 332 335 335 336
339 340 342 342 340 339 339 341 341 342 343 342 335 334 337 339 340 339 340 342 343 342 335 334 334 336 336 336 332 339 344 343 343 343 336 327 328 331 329 328 330 333 336
343 337 341 342 341 338 339 340 342 342 341 336 333 337 340 340 338 339 337 337 342 336 336 340 339 335 331 329 339 342 344 345 345 346 344 342 331 329 329 331 336 335 331
344 342 340 340 339 338 339 342 343 340 333 334 336 336 336 335 338 337 337 339 334 329 334 332 332 332 331 330 336 343 346 346 347 346 345 345 340 337 337 339 336 336 335
344 342 341 341 338 338 339 340 339 336 335 335 334 335 333 338 335 335 339 335 336 339 334 334 335 335 333 331 335 346 347 345 344 347 347 339 334 337 340 338 338 337 338
343 341 341 340 340 339 337 339 336 332 332 333 333 331 334 336 335 339 340 338 339 335 337 336 338 335 333 332 341 345 347 347 350 349 346 339 339 341 341 339 340 339 340
342 340 338 339 338 339 339 339 337 335 332 333 334 337 338 334 335 336 338 340 340 338 336 338 336 335 334 333 344 347 346 346 348 347 346 343 341 341 342 341 341 342 341
341 340 337 337 339 339 338 338 336 335 334 334 338 338 338 337 337 338 340 341 340 337 337 337 337 336 335 336 339 342 343 343 346 345 344 343 341 342 342 342 341 341 341
336 337 338 338 337 338 338 337 336 338 341 341 337 338 336 335 336 334 337 337 337 337 338 336 334 330 328 332 341 342 344 345 346 346 345 341 342 342 341 342 342 340 341
334 338 338 336 336 337 338 337 337 338 341 340 339 332 329 336 334 336 336 336 336 338 337 334 332 330 328 334 343 345 342 344 332 342 344 340 340 341 342 343 343 336 340
335 340 338 336 335 336 338 339 337 338 339 334 331 339 343 343 337 335 330 329 333 338 334 332 339 346 348 346 341 340 342 340 337 344 345 339 340 342 341 340 339 338 339
335 335 336 335 335 336 337 339 338 337 338 343 343 341 344 344 342 335 327 327 333 333 333 335 345 347 347 347 348 348 346 343 338 338 340 340 341 346 342 339 343 341 337
333 333 334 335 335 335 337 335 337 336 335 343 343 339 340 341 341 339 343 346 344 344 347 346 344 346 345 347 346 343 345 344 345 345 344 341 340 344 343 341 338 332 332
333 333 333 331 329 333 334 337 337 338 333 335 338 341 344 345 344 343 344 342 344 345 335 345 346 347 348 346 345 342 342 343 345 344 346 347 345 344 337 342 335 333 333
341 336 335 338 334 338 339 341 341 343 342 341 337 341 345 345 344 345 344 341 341 346 349 347 344 347 347 345 346 343 343 345 346 344 345 347 345 344 339 341 337 335 336
343 342 340 342 341 342 341 340 341 343 343 342 342 338 344 345 342 342 337 341 336 340 344 345 343 348 347 347 346 343 343 346 347 338 339 346 346 347 342 341 340 336 336
344 343 340 336 338 342 339 342 344 342 344 343 343 342 337 341 338 336 341 342 343 348 349 348 345 345 345 346 343 340 342 339 348 345 340 345 345 349 343 339 340 338 339
344 344 344 341 342 340 339 343 345 342 345 345 344 339 338 337 342 342 341 345 346 348 348 342 349 340 347 347 345 337 342 340 346 347 346 344 344 346 343 338 340 338 339
344 343 343 345 342 342 339 342 341 343 345 345 345 344 341 338 343 348 344 344 342 347 350 348 347 342 347 347 343 345 342 344 344 345 345 348 346 346 345 342 342 345 338
342 342 343 343 342 342 342 340 340 342 343 342 346 346 343 339 343 345 348 349 339 344 345 349 343 339 345 350 344 346 337 340 344 346 348 348 348 346 345 346 346 344 344
342 342 340 343 342 341 344 342 342 341 344 345 345 345 346 345 344 339 348 349 344 345 347 341 338 345 350 350 347 344 341 344 342 344 346 347 342 342 342 346 344 341 347
345 344 342 342 343 342 339 342 346 345 346 346 346 345 343 346 342 339 338 344 341 344 348 349 338 345 345 351 350 348 343 343 346 345 345 344 346 346 346 346 339 344 346
347 345 343 342 343 343 339 341 345 346 343 344 344 344 345 346 344 342 347 342 339 346 347 345 346 352 347 349 348 347 348 348 348 347 346 346 346 345 346 343 344 343 346
347 346 346 345 342 344 339 343 345 346 344 347 344 347 347 347 347 350 348 347 336 339 346 349 353 345 347 349 347 345 346 347 349 348 348 348 348 345 348 346 346 349 346
343 342 348 347 343 343 342 339 343 343 344 345 348 347 346 349 346 348 348 348 338 344 345 346 350 347 349 347 341 343 348 350 349 348 345 347 348 347 346 347 349 349 349
Wind_Speed
15 12 10 11 12 13 13 14 14 13 12 13 13 13 12 12 12 12 11 12 12 12 13 14 12 13 14 14 15 14 15 15 14 12 13 14 14 13 13 12 11 10 12
16 11 10 12 12 14 14 13 15 14 13 13 11 11 11 10 11 11 12 13 13 13 13 11 12 14 15 17 17 16 17 17 17 15 11 11 11 12 11 10 10 11 11
14 11 12 13 12 12 12 12 12 14 13 14 15 12 11 11 12 10 11 12 13 12 12 14 15 15 16 18 19 20 19 18 18 16 12 8 9 9 7 8 9 8 8
14 15 13 12 12 12 12 13 13 14 15 16 16 14 16 15 13 12 12 13 13 12 14 13 13 14 16 19 21 20 16 12 10 8 8 7 5 7 9 10 12 11 7
13 13 15 13 12 12 11 11 13 14 16 16 17 17 18 18 13 12 14 14 14 14 14 13 14 14 14 17 20 17 14 14 13 9 5 2 2 8 12 10 9 8 7
13 13 14 13 12 13 12 13 14 16 17 18 19 19 16 18 15 13 13 14 15 14 14 12 11 11 11 14 18 18 15 11 11 10 4 3 5 9 10 10 8 4 1
12 11 14 14 13 14 13 12 14 17 17 19 19 19 17 16 15 13 12 13 14 14 12 10 9 8 10 13 19 18 15 11 12 10 6 2 5 7 7 6 9 10 6
10 14 16 16 15 14 15 14 15 16 16 18 18 14 17 19 14 13 13 12 12 12 11 9 8 8 9 12 18 15 12 11 4 9 2 3 3 5 5 5 6 10 11
13 14 17 16 16 15 16 16 17 17 17 16 14 17 18 12 12 12 12 11 13 12 10 8 8 8 8 10 13 13 11 11 5 2 2 4 3 4 5 5 7 6 6
11 15 20 21 20 17 15 15 16 14 14 14 17 16 11 11 10 10 11 10 11 10 8 9 10 10 11 12 13 12 10 3 6 6 7 6 6 8 8 8 7 4 4
11 16 24 22 20 17 15 17 16 14 19 18 17 14 15 15 14 8 7 7 6 7 7 9 9 11 12 11 9 7 3 3 7 11 13 6 7 11 12 11 9 6 3
13 20 25 23 21 19 16 16 17 17 21 14 17 16 13 12 12 9 4 5 6 6 9 9 6 4 4 4 1 2 4 14 11 8 10 7 10 16 15 13 10 6 4
18 22 23 23 21 20 15 17 17 17 17 15 13 14 14 10 8 9 3 7 9 10 7 4 2 3 7 6 9 10 7 5 2 6 7 2 4 14 12 11 9 4 5
19 21 24 24 22 19 17 14 14 16 16 15 14 11 12 10 7 3 2 5 7 6 4 2 2 1 5 6 4 6 7 6 6 8 7 17 14 9 8 8 7 6 7
21 22 20 21 19 21 17 14 16 18 16 10 13 10 6 1 5 9 6 6 7 6 8 5 4 7 7 2 3 4 6 6 6 12 8 12 9 12 10 7 7 8 8
19 18 14 12 17 18 17 14 15 13 13 11 10 5 4 1 2 10 5 4 4 6 3 4 5 5 7 7 3 3 2 2 5 5 5 5 8 14 11 7 6 8 9
24 19 14 16 18 12 13 13 9 8 10 10 9 7 5 5 4 6 17 11 11 4 6 3 8 12 10 11 9 6 1 6 5 16 5 3 8 10 12 8 6 6 7
28 21 15 19 16 13 15 12 11 12 8 12 10 10 10 9 10 13 11 10 9 3 9 5 7 9 6 9 6 8 8 16 10 6 10 7 7 7 7 9 5 5 5
26 18 13 19 15 15 18 17 11 12 15 11 15 13 12 10 8 4 4 2 5 5 4 2 2 3 6 9 9 1 5 10 6 2 6 6 2 4 6 8 5 6 2
25 17 17 24 15 18 15 17 16 18 13 10 16 14 6 8 8 7 4 1 9 4 1 6 3 2 5 8 10 10 8 5 7 6 6 7 5 4 7 10 5 6 5
26 22 23 24 20 19 18 16 22 18 13 9 12 11 11 8 12 13 10 6 7 10 5 6 6 6 2 4 9 8 15 3 3 4 5 12 4 3 4 3 6 8 8
26 24 25 22 23 20 18 16 12 15 9 12 16 13 8 10 12 17 13 9 8 8 5 4 5 6 1 5 10 6 5 9 7 6 7 2 4 9 7 4 3 4 6
28 28 26 27 25 22 22 21 14 14 14 12 19 13 12 12 11 13 15 12 11 9 7 1 5 6 1 3 3 8 5 5 6 1 2 3 3 2 4 2 5 3 7
34 28 24 26 26 23 25 25 18 19 23 20 19 16 8 11 8 10 11 9 10 11 6 4 5 4 5 5 4 4 5 7 5 5 7 3 1 5 2 3 7 3 4
30 29 27 25 23 24 29 26 22 21 18 14 13 17 12 14 9 10 8 9 9 14 9 7 6 6 5 3 2 2 2 7 4 6 6 9 6 5 3 4 7 6 8
31 32 32 27 24 25 32 30 27 25 24 18 16 17 13 13 8 13 13 8 7 15 10 8 5 4 5 3 4 3 2 12 10 5 5 8 10 2 4 2 4 4 3
Wind_Direction
137 119 120 126 128 129 126 125 124 122 116 110 104 106 107 111 116 117 114 113 116 120 119 117 115 118 125 123 124 119 113 112 115 119 127 132 129 135 130 122 128 125 125
143 123 123 128 126 123 123 125 128 130 124 114 108 110 111 118 110 107 110 110 116 119 122 121 119 123 122 121 119 120 119 119 121 119 124 132 130 138 129 110 130 134 136
167 138 136 128 131 132 130 116 131 134 127 124 113 111 110 115 109 114 119 120 121 118 126 124 121 120 124 122 124 128 125 123 118 114 105 118 135 143 137 121 127 120 131
143 160 156 141 134 130 132 141 142 136 134 127 125 119 113 112 108 110 118 130 131 126 129 127 125 123 120 122 128 130 124 126 134 128 112 102 107 123 117 107 97 82 96
152 153 151 144 143 137 139 138 148 143 139 137 131 123 119 112 111 116 120 129 129 132 131 130 122 118 120 129 140 134 128 119 118 131 168 88 88 113 106 100 103 55 81
154 153 146 147 152 146 146 142 142 146 139 137 133 121 116 117 114 118 120 123 125 124 126 126 121 121 125 134 142 137 138 126 126 147 153 119 120 119 117 86 75 86 216
140 145 147 144 148 149 149 150 145 147 143 141 139 130 127 126 119 122 123 124 127 129 132 126 124 124 124 135 143 142 143 133 156 176 189 67 119 124 120 95 59 59 89
141 147 150 143 144 148 144 148 150 154 152 150 147 144 134 125 124 122 128 132 134 138 139 130 121 115 120 136 148 140 127 115 146 200 197 327 89 93 84 75 43 32 40
164 158 162 158 155 147 142 141 144 148 149 152 145 135 129 129 131 131 135 140 141 141 140 126 113 108 114 127 143 135 128 135 143 177 329 343 19 36 35 35 29 28 34
135 161 153 148 146 144 139 140 142 143 149 151 143 139 127 120 111 125 148 146 142 140 135 124 121 116 112 122 122 127 135 148 180 273 282 313 3 6 6 11 10 37 55
119 150 155 150 142 136 141 146 145 144 141 140 149 144 130 121 112 125 141 134 127 133 130 127 124 109 110 127 117 123 135 271 109 199 240 277 5 5 1 359 360 14 49
122 141 153 150 151 146 142 143 137 131 136 133 140 136 119 100 106 90 86 105 131 127 124 127 130 87 52 16 305 232 200 58 341 236 224 245 7 5 356 352 356 10 56
123 131 145 153 153 144 133 131 133 137 143 130 128 107 118 109 102 70 80 136 130 131 142 164 340 36 8 13 15 320 273 341 66 195 166 100 17 8 356 354 8 31 71
129 130 134 135 130 133 130 128 136 145 150 119 119 115 120 119 94 132 217 177 180 175 150 144 358 325 10 323 2 348 339 8 59 35 95 21 359 359 10 19 27 71 81
145 135 134 124 126 133 140 129 138 131 139 121 128 137 130 122 264 213 229 217 239 190 141 96 353 21 311 171 48 340 11 345 25 28 19 0 1 29 52 51 59 76 78
168 162 156 148 138 138 148 149 139 131 128 118 138 166 206 202 179 180 202 215 215 154 113 48 337 292 294 334 313 6 23 59 104 27 359 358 39 36 52 47 68 84 83
173 182 179 159 157 160 144 144 164 144 174 153 143 177 238 167 204 204 155 140 183 102 127 67 240 296 285 288 271 281 312 27 220 350 203 69 52 39 44 48 67 86 86
173 180 160 167 163 166 160 166 176 180 205 167 180 204 194 137 141 145 137 127 164 209 322 287 268 289 333 358 314 286 344 279 268 27 42 84 56 62 45 67 74 88 98
174 168 168 163 163 167 186 194 192 182 156 191 180 171 191 169 151 163 118 92 154 200 296 268 72 137 357 23 359 61 327 294 214 155 112 53 61 92 31 39 52 83 109
175 167 174 182 169 172 181 192 180 166 166 155 185 161 160 157 187 171 180 126 192 205 312 247 274 187 25 22 343 353 341 110 18 29 214 149 105 85 37 50 52 79 71
181 184 179 180 181 186 185 174 169 170 156 169 174 178 191 203 194 185 188 195 196 223 252 258 250 205 270 350 346 9 29 105 352 104 219 156 170 200 182 86 55 60 57
197 197 191 195 193 199 198 191 169 173 187 182 192 198 210 205 211 188 201 202 204 217 216 228 227 205 60 31 19 34 44 58 77 90 99 125 352 282 262 133 50 75 90
200 194 196 200 202 207 201 183 181 211 209 191 202 199 228 204 236 216 212 224 236 225 231 245 187 181 70 29 43 39 41 28 53 71 137 324 53 84 73 21 304 215 97
205 203 205 202 206 205 191 188 197 212 201 212 204 204 184 212 253 213 234 236 230 206 218 195 179 171 153 83 84 46 28 356 17 47 28 3 18 297 203 70 166 172 128
202 207 213 214 206 201 191 194 196 205 202 195 200 199 195 224 244 224 239 247 250 210 214 202 188 194 180 152 100 212 57 34 337 331 36 70 335 252 181 63 178 170 99
222 212 209 219 212 203 201 200 202 206 209 208 189 189 192 216 221 219 231 255 242 198 211 208 227 236 200 235 247 215 350 32 41 25 42 30 27 36 230 125 171 164 114